Location: Gandikunta
(16.3784°N, 80.8378°E)
Time: 07:00:50
(UTC+00:00)

SL-08 R/B - Pass Details

Date: 19 May 2025
Orbit: 667 x 731 km, 98.5° (Epoch: 18 June)

Event Time Altitude Azimuth Distance (km) Brightness Sun altitude
Rises 14:03:03 0° 10° (N) 3,116 6.9 -14.4°
Reaches altitude 10° 14:05:20 10° 9° (N) 2,187 6.1 -14.9°
Maximum altitude 14:10:08 80° 283° (WNW) 716 3.4 -15.9°
Drops below altitude 10° 14:14:50 10° 196° (SSW) 2,144 5.7 -16.9°
Sets 14:17:03 0° 195° (SSW) 3,049 6.5 -17.4°
